Regional Weather Roundup
Issued by NWS

Home | Current Version | Previous Version | Graphics & Text | Print | Product List | Glossary On
Versions: 1 2 3 4 5 6 7 8 9 10 11 12 13 14 15 16 17 18 19 20 21 22 23 24 25 26 27 28 29 30 31 32 33 34 35 36 37 38 39 40 41 42 43 44 45 46 47 48 49 50
000
ASUS43 KDTX 291610
RWRMI
MICHIGAN HOURLY REGIONAL WEATHER ROUNDUP
NATIONAL WEATHER SERVICE DETROIT/PONTIAC MI
1200 PM EDT FRI APR 29 2016

NOTE: "FAIR" INDICATES FEW OR NO CLOUDS BELOW 12,000 FEET WITH NO
SIGNIFICANT WEATHER AND/OR OBSTRUCTION TO VISIBILITY.

MIZ047>049-052>055-059>063-066>070-074>076-081>083-291700-
SOUTHEAST LOWER MICHIGAN

CITY           SKY/WX    TMP DP  RH WIND       PRES   REMARKS
ADRIAN         CLOUDY    50  36  58 N8        30.08R
ALMA           CLOUDY    43  37  82 NE10G20   30.11S
ANN ARBOR      CLOUDY    48  35  60 NE7       30.08R
BAD AXE        LGT RAIN  42  34  72 CALM      30.12F
CARO           LGT RAIN  41  36  83 E5        30.11S
DETROIT CITY   CLOUDY    44  36  73 NE5       30.09R
DETROIT        CLOUDY    45  36  70 N7        30.09R
FLINT          CLOUDY    45  36  70 NE13      30.10S
GROSSE ILE     CLOUDY    45  37  76 NE5       30.07R
HILLSDALE      DRIZZLE   47  37  69 N7        30.07R
HOWELL         CLOUDY    44  37  77 N8        30.08R

CITY           SKY/WX    TMP DP  RH WIND       PRES   REMARKS
JACKSON        CLOUDY    47  37  68 NE5       30.08R
LAMBERTVILLE   CLOUDY    51  37  59 N6        30.08R
LANSING        CLOUDY    45  37  73 N9        30.10R
LAPEER         RAIN      42  35  75 E7        30.09S
MASON          CLOUDY    45  36  72 N5        30.09R
MONROE         CLOUDY    47  39  75 N5        30.08R
MT. CLEMENS    LGT RAIN  43  38  82 NE5       30.08R
PONTIAC        CLOUDY    41  34  76 NE8       30.07R
PORT HOPE        N/A     43  35  73 CALM      30.11S
PORT HURON     LGT RAIN  41  34  75 N7        30.09R
TRI CITIES     CLOUDY    50  32  50 NE10      30.11S
MIDLAND        CLOUDY    48  34  57 E8        30.11R
TROY           RAIN      43  37  80 N5        30.10R
SAGINAW HB     LGT RAIN  45  37  76 NE12      30.10S
$$
MIZ043>046-050>051-056>058-064>065-071>073-077>080-291700-
SOUTHWEST LOWER MICHIGAN

CITY           SKY/WX    TMP DP  RH WIND       PRES   REMARKS
BATTLE CREEK   CLOUDY    47  38  71 VRB7      30.09R
BENTON HARBOR  CLOUDY    49  43  80 CALM      30.08R
BIG RAPIDS     CLOUDY    45  36  72 E5        30.10S
COLDWATER      CLOUDY    46  39  77 CALM      30.09R
FREMONT        CLOUDY    44  38  78 E8        30.09S
HOLLAND        CLOUDY    46  39  76 E6        30.11R
GRAND RAPIDS   CLOUDY    46  37  71 NE8       30.10R
IONIA          CLOUDY    43  37  79 NE9       30.09R
KALAMAZOO      CLOUDY    47  39  74 E3        30.09R
LUDINGTON      PTSUNNY   47  37  70 E7        30.11S
MARSHALL       CLOUDY    46  38  73 NE3       30.08R
MOUNT PLEASANT CLOUDY    47  32  57 NE9       30.09F
MUSKEGON       CLOUDY    46  36  68 NE9       30.10R
SOUTH HAVEN    CLOUDY    45  44  97 E5        30.10R FOG
$$
MIZ016>042-291700-
NORTHERN LOWER MICHIGAN

CITY           SKY/WX    TMP DP  RH WIND       PRES   REMARKS
ALPENA         CLOUDY    50  33  52 N8        30.14S
BEAVER ISLAND  CLOUDY    51  29  43 E7        30.15S
BELLAIRE       CLOUDY    50  28  41 NE5       30.13S
CADILLAC       CLOUDY    47  31  53 SE6       30.09F
CHARLEVOIX     CLOUDY    51  32  48 NE9       30.16F
FRANKFORT      PTSUNNY   49  32  51 E8        30.12F
GAYLORD        CLOUDY    47  28  47 VRB5      30.12R
GRAYLING       CLOUDY    50  29  43 E8        30.11S
HARBOR SPRINGS CLOUDY    51  30  44 E8        30.14S
HOUGHTON LAKE  MOSUNNY   50  30  46 VRB7      30.10S
MANISTEE       CLOUDY    46  32  57 NE7       30.12F
OSCODA         CLOUDY    47  33  56 E6        30.13R
PELLSTON       CLOUDY    50  29  44 E6        30.15S
ROGERS CITY    CLOUDY    40  32  72 NE5       30.17S
TRAVERSE CITY  MOSUNNY   49  28  44 N7        30.11F
$$
MIZ007>008-015-291700-
EASTERN UPPER MICHIGAN

CITY           SKY/WX    TMP DP  RH WIND       PRES   REMARKS
KINROSS          N/A     50  27  40 SE3       30.15S
MACKINAC ISLAN CLOUDY    44  27  52 E7        30.16R
NEWBERRY       SUNNY     54  28  37 CALM      30.14S
S. S. MARIE    SUNNY     52  28  39 W5        30.15S
MUNISING         N/A     43  35  73 NE10      30.17S
$$
MIZ004>006-011>014-085-291700-
CENTRAL UPPER MICHIGAN

CITY           SKY/WX    TMP DP  RH WIND       PRES   REMARKS
MANISTIQUE     MOSUNNY   48  28  46 S7        30.15S
ESCANABA       CLOUDY    52  21  30 E13       30.15F
MENOMINEE      MOSUNNY   46  30  53 E10       30.15S
SAWYER-GWINN   PTSUNNY   48  23  37 CALM      30.18R
$$
MIZ001>003-009>011-084-291700-
WESTERN UPPER MICHIGAN

CITY           SKY/WX    TMP DP  RH WIND       PRES   REMARKS
IRON MOUNTAIN  CLOUDY    50  28  42 NE10      30.13F
HOUGHTON       SUNNY     49  28  44 NW9       30.16S
COPPER HARBOR    N/A     41  36  82 N8        30.18S
IRONWOOD         N/A     46  28  49 NW8       30.15S
$$

ABBREVIATIONS USED IN REMARKS
   TC - TEMPERATURE IN CELSIUS
  WCI - WIND CHILL INDEX
   HX - HEAT INDEX
  VSB - VISIBILITY





USA.gov is the U.S. government's official web portal to all federal, state and local government web resources and services.